Location: Emporia
(38.4040°N, 96.1810°W)
Time: 11:30:18
(UTC-05:00)

ISS - Visible Passes

Search period start: 02 October 2014 00:00
Search period end: 12 October 2014 00:00
Orbit: 413 x 415 km, 51.6° (Epoch: 02 October)

Date Brightness Start Highest point End Pass type
(mag) Time Alt. Az. Time Alt. Az. Time Alt. Az.
02 Oct -1.4 05:25:06 24° SE 05:25:06 24° SE 05:26:35 10° SE visible
03 Oct -0.9 06:12:00 11° SSW 06:12:00 11° SSW 06:12:16 10° SSW visible
04 Oct -1.3 20:23:17 10° S 20:24:27 16° SSE 20:24:27 16° SSE visible
05 Oct -1.1 19:35:37 10° SSE 19:36:50 12° SE 19:38:03 10° ESE visible
05 Oct -0.9 21:09:48 10° WSW 21:11:00 20° WSW 21:11:00 20° WSW visible
06 Oct -3.4 20:20:34 10° SW 20:23:51 65° SE 20:24:25 53° E visible
07 Oct -2.4 19:31:37 10° SSW 19:34:38 33° SE 19:37:38 10° ENE visible
07 Oct -1.0 21:08:27 10° W 21:10:31 24° NW 21:10:31 24° NW visible
08 Oct -2.2 20:18:43 10° WSW 20:21:54 43° NW 20:23:32 23° NNE visible
09 Oct -3.2 19:29:12 10° SW 19:32:30 78° NW 19:35:50 10° NE visible
09 Oct -0.5 21:07:37 10° WNW 21:09:16 15° NNW 21:09:16 15° NNW visible
10 Oct -1.0 20:17:27 10° WNW 20:20:02 20° NNW 20:22:01 13° NNE visible
11 Oct -1.6 19:27:28 10° W 19:30:27 30° NNW 19:33:27 10° NNE visible
